Meteo Giornale » Osservazioni meteo Gran Bretagna » Yeovilton

ore: 20:50 - Osservazioni Meteo Yeovilton
Lat. 51° 0' N Lon. 2° 38' W Alt. 23 metri s.l.m.

molto_nuvoloso

16 °C

Molto Nuvoloso

Temp. 24 Ore

11 °C

22 °C

Nord

5.5 Km/h

Dew point 15 °C

Umidità 93 %

Visibilità  10 Km

Il sole sorge alle ore 06:24

Il sole tramonta alle ore 19:56

Data e Ora Cielo e Fenomeni T °C DP °C Um. % Pres. hPa Vis. km Vento km/h
Oggi h: 20:50 molto_nuvoloso Molto Nuvoloso 16 15 93 1020 10 N 5.5
Oggi h: 20:20 molto_nuvoloso Molto Nuvoloso 16 14 87 1020 10 S 7.4
Oggi h: 19:50 nuvoloso Pioggia nelle vicinanze 16 14 87 1020 10 N 3.7
Oggi h: 19:20 molto_nuvoloso Molto Nuvoloso 17 14 82 1020 10 N 3.7
Oggi h: 18:50 nuvoloso_piovaschi Pioggia 18 14 77 1020 6 N 7.4
Oggi h: 18:35 nuvoloso_piovaschi Pioggia 18 14 77 1020 7 N/NO 13
Oggi h: 18:20 nuvoloso_piovaschi Pioggia 18 14 77 1020 10 O 11.1
Oggi h: 17:50 molto_nuvoloso Molto Nuvoloso 19 14 72 1020 10 N 3.7
Oggi h: 16:50 molto_nuvoloso Molto Nuvoloso 20 13 64 1020 10 S/SO 22.2
Oggi h: 16:20 molto_nuvoloso Molto Nuvoloso 20 13 64 1020 10 S/SO 14.8
Oggi h: 15:50 nuvoloso Pioggia nelle vicinanze 19 13 68 1020 10 S/SO 18.5
Oggi h: 15:20 coperto_pioggia Pioggia 20 12 59 1020 10 O/SO 14.8
Oggi h: 14:50 nuvoloso Nuvoloso 20 12 59 1020 10 S/SO 20.3
Oggi h: 14:20 nuvoloso Nuvoloso 21 11 52 1020 10 S/SO 20.3
Oggi h: 13:50 nuvoloso Nuvoloso 22 11 49 1020 10 SO 14.8
Oggi h: 13:20 poco_nuvoloso Poco Nuvoloso 22 10 46 1020 10 SO 14.8
Oggi h: 12:50 nuvoloso Nuvoloso 21 11 52 1020 10 S/SO 16.7
Oggi h: 12:20 nuvoloso Nuvoloso 20 12 59 1021 10 SO 13
Oggi h: 11:50 nuvoloso Nuvoloso 20 12 59 1021 10 O 11.1
Oggi h: 11:20 nuvoloso Nuvoloso 19 12 63 1021 10 O/SO 13
Oggi h: 10:50 poco_nuvoloso Poco Nuvoloso 19 13 68 1021 10 SO 13
Oggi h: 10:20 nuvoloso Nuvoloso 18 13 72 1021 10 SO 13
Oggi h: 09:50 nuvoloso Nuvoloso 17 13 77 1021 10 O/SO 11.1
Oggi h: 09:20 nuvoloso Nuvoloso 16 13 82 1021 10 O/SO 9.3
Oggi h: 08:50 molto_nuvoloso Molto Nuvoloso 15 13 87 1021 10 N 3.7
Oggi h: 08:20 coperto Coperto 14 12 87 1021 10 N 5.5
Oggi h: 07:50 nuvoloso Nuvoloso 13 12 93 1021 10 N 3.7
Oggi h: 07:20 molto_nuvoloso Molto Nuvoloso 13 12 93 1021 10 N 3.7
Oggi h: 06:50 molto_nuvoloso Molto Nuvoloso 11 10 93 1020 10 N 5.5
Oggi h: 06:20 poco_nuvoloso Poco Nuvoloso 12 11 93 1020 10 SE 7.4
Oggi h: 05:50 sereno Sereno 12 11 93 1020 10 N 5.5
Oggi h: 05:20 coperto Coperto 13 11 87 1020 10 N 5.5
Oggi h: 04:50 coperto Coperto 13 11 87 1020 10 E/SE 7.4
Oggi h: 04:20 coperto Coperto 13 11 87 1020 10 N 5.5
Oggi h: 03:50 coperto Coperto 12 11 93 1020 10 S/SE 7.4
Oggi h: 03:20 coperto Coperto 12 11 93 1020 10 N 3.7
Oggi h: 02:50 nuvoloso Nuvoloso 12 10 87 1020 10 N 3.7
Oggi h: 02:20 nuvoloso Nuvoloso 11 10 93 1020 10 N 3.7
Oggi h: 01:50 molto_nuvoloso Molto Nuvoloso 12 10 87 1020 10 N 1.8
Oggi h: 01:20 coperto Coperto 12 10 87 1020 10 N 1.8
Oggi h: 00:50 poco_nuvoloso Poco Nuvoloso 12 10 87 1020 10 N 5.5
Oggi h: 00:20 poco_nuvoloso Poco Nuvoloso 13 10 81 1020 10 O/SO 7.4
Ieri h: 23:50 sereno Sereno 13 10 81 1020 10 SO 9.3
Ieri h: 23:20 poco_nuvoloso Poco Nuvoloso 14 10 76 1020 10 SO 9.3
Ieri h: 22:50 molto_nuvoloso Molto Nuvoloso 14 11 82 1020 10 SO 9.3
Ieri h: 22:20 poco_nuvoloso Poco Nuvoloso 14 11 82 1020 10 SO 9.3
Ieri h: 21:50 sereno Sereno 14 10 76 1019 10 SO 9.3